Weather observations for the past three days for
Jones Field - Bonham
Imperial (Metric)
Date Time (cdt) Wind (mph) Vis. (mi.) Weather Sky Cond. Temperature (ºF) Relative Humidity Wind Chill (°F) Heat Index (°F) Pressure Precipitation (in)
Air Dwpt 6 hour altimeter (in) sea level (mb) 1 hr 3 hr 6 hr
Max. Min.
14 12:15 S 10 10.00 Partly Cloudy SCT041 SCT050 SCT055 91.6 72.3 53% 100 30.12 0.0
14 11:55 SW 7 G 16 10.00 Partly Cloudy BKN038 SCT050 92.3 72.9 53% 101 30.13 0.0
14 11:35 W 7 10.00 Partly Cloudy SCT036 91.4 73.4 56% 100 30.13 0.0
14 11:15 SW 12 G 16 10.00 Fair CLR 89.8 73 58% 98 30.13 0.0
14 10:55 SW 9 10.00 Fair CLR 89.6 73.4 59% 98 30.13 0.0
14 10:35 SW 9 G 17 10.00 Fair CLR 88 72.9 61% 96 30.14 0.0
14 10:15 SW 13 G 16 10.00 Fair CLR 87.3 72.7 62% 94 30.14 0.0
14 09:55 SW 9 G 18 10.00 Fair CLR 85.8 72.9 65% 93 30.14 0.0
14 09:35 SW 10 10.00 Fair CLR 84.7 73.2 68% 92 30.15 0.0
14 09:15 SW 13 10.00 Fair CLR 83.7 73.4 71% 90 30.15 0.0
14 08:55 SW 10 10.00 Fair CLR 82.4 73.4 74% 88 30.15 0.0
14 08:35 SW 10 10.00 Fair CLR 80.8 73.4 78% 86 30.15 0.0
14 08:15 S 9 10.00 Fair CLR 79.2 73.4 83% 83 30.15 0.0
14 07:55 S 7 10.00 Fair CLR 77.7 73.4 87% 80 30.15 0.0
14 07:35 SW 8 10.00 Fair CLR 76.1 73.6 92% 76 30.14 0.0
14 07:15 S 5 10.00 Fair CLR 74.8 73.4 95% 30.14 0.0
14 06:55 S 6 10.00 Fair CLR 73.9 73 77.9 73.2 97% 30.13 0.0
14 06:35 S 6 10.00 Fair CLR 73.4 72.9 98% 30.13 0.0
14 06:15 S 6 10.00 Fair CLR 73.4 72.9 98% 30.13 0.0
14 05:55 S 6 10.00 Fair CLR 73.6 72.9 98% 30.13 0.0
14 05:35 S 7 10.00 Fair CLR 73.6 72.9 98% 30.12 0.0
14 05:15 S 8 10.00 Fair CLR 73.9 72.9 96% 30.12 0.0
14 04:55 S 9 10.00 Fair CLR 74.1 73 96% 30.12 0.0
14 04:35 S 8 10.00 Fair CLR 74.5 73.2 96% 30.12 0.0
14 04:15 S 10 10.00 Fair CLR 74.8 73.4 95% 30.11 0.0
14 03:55 S 10 10.00 Fair CLR 75 73.4 95% 73 30.11 0.0
14 03:35 S 9 10.00 Fair CLR 75.4 73.4 94% 74 30.12 0.0
14 03:15 S 9 10.00 Fair CLR 75.7 73.2 92% 75 30.11 0.0
14 02:55 S 10 10.00 Fair CLR 75.9 73 91% 76 30.12 0.0
14 02:35 S 9 10.00 Fair CLR 77 73.4 89% 78 30.12 0.0
14 02:15 S 10 10.00 Fair CLR 76.6 72.9 88% 78 30.12 0.0
14 01:55 S 7 10.00 Fair CLR 76.8 72.7 87% 78 30.13 0.0
14 01:35 S 8 10.00 Fair CLR 77.2 72.5 86% 79 30.13 0.0
14 01:15 S 8 10.00 Fair CLR 77.4 72.3 85% 79 30.14 0.0
14 00:55 S 7 10.00 Fair CLR 78.1 72.3 91.8 77.9 83% 81 30.14 0.0
14 00:35 S 9 10.00 Fair CLR 78.3 72.5 83% 81 30.14 0.0
14 00:15 S 9 10.00 Fair CLR 78.8 72.5 81% 82 30.14 0.0
13 23:55 S 12 10.00 Fair CLR 79.5 72.9 80% 83 30.13 0.0
13 23:35 S 12 10.00 Fair CLR 80.1 73.4 80% 84 30.14 0.0
13 23:15 S 8 10.00 Fair CLR 80.6 73.4 79% 85 30.14 0.0
13 22:55 S 10 10.00 Fair CLR 81.1 72.9 76% 86 30.13 0.0
13 22:35 S 10 10.00 Fair CLR 81.7 72 72% 86 30.13 0.0
13 22:15 S 10 10.00 Fair CLR 82.4 70.9 68% 87 30.12 0.0
13 21:55 S 13 10.00 Fair CLR 83.3 70 64% 87 30.12 0.0
13 21:35 S 15 10.00 Fair CLR 84.2 70.2 63% 89 30.12 0.0
13 21:15 S 17 G 24 10.00 Fair CLR 85.3 70.5 61% 90 30.12 0.0
13 20:55 S 12 10.00 Fair CLR 86.2 69.4 57% 91 30.11 0.0
13 20:35 S 12 10.00 Fair CLR 86.9 69.4 56% 91 30.11 0.0
13 20:15 S 12 10.00 Fair CLR 88.2 69.4 54% 93 30.11 0.0
13 19:55 S 14 G 18 10.00 Fair CLR 89.1 69.3 52% 94 30.11 0.0
13 19:35 S 15 G 21 10.00 Fair CLR 90.1 69.4 51% 95 30.1 0.0
13 19:15 S 12 G 18 10.00 Fair CLR 91 69.1 49% 96 30.1 0.0
13 18:55 S 13 10.00 Fair CLR 92.1 69.1 95.9 89.4 47% 97 30.1 0.0
13 18:35 S 10 10.00 Fair CLR 93 69.4 46% 99 30.1 0.0
13 18:15 S 12 10.00 Fair CLR 93.9 69.1 44% 99 30.1 0.0
13 17:55 S 8 10.00 Partly Cloudy SCT055 93.4 68.2 44% 98 30.1 0.0
13 17:35 SE 15 10.00 Partly Cloudy SCT055 93.2 68.4 44% 98 30.1 0.0
13 17:15 SE 9 10.00 Partly Cloudy SCT055 SCT070 94.6 68.9 43% 100 30.1 0.0
13 16:55 S 13 G 21 10.00 Partly Cloudy SCT055 SCT070 SCT120 95 68 41% 100 30.1 0.0
13 16:35 S 9 10.00 Partly Cloudy SCT055 SCT070 SCT120 94.3 68.4 43% 99 30.11 0.0
13 16:15 S 8 10.00 Mostly Cloudy SCT055 SCT070 BKN080 92.5 67.6 44% 96 30.11 0.0
13 15:55 S 13 10.00 Mostly Cloudy BKN055 92.8 67.8 44% 97 30.12 0.0
13 15:35 S 10 10.00 Partly Cloudy SCT055 94.8 68 42% 100 30.12 0.0
13 15:15 S 9 10.00 Partly Cloudy SCT055 93.9 68.7 44% 99 30.13 0.0
13 14:55 SW 12 G 18 10.00 Fair CLR 94.1 67.3 41% 98 30.13 0.0
13 14:35 S 14 10.00 Fair CLR 93.6 67.5 42% 98 30.14 0.0
13 14:15 S 15 G 21 10.00 Partly Cloudy SCT050 93 68.2 44% 98 30.14 0.0
13 13:55 SW 10 G 20 10.00 Fair CLR 93.4 68.2 44% 98 30.15 0.0
13 13:35 S 16 G 22 10.00 Partly Cloudy SCT046 91.8 68.2 46% 96 30.16 0.0
13 13:15 S 12 10.00 Partly Cloudy SCT046 90.9 69.3 49% 96 30.16 0.0
13 12:55 SW 12 G 18 10.00 Fair CLR 92.1 68.4 92.5 73.2 46% 97 30.17 0.0
13 12:35 S 16 G 22 10.00 Fair CLR 90.7 68.5 48% 95 30.18 0.0
13 12:15 S 13 G 16 10.00 Partly Cloudy SCT039 90 69.8 52% 95 30.18 0.0
13 11:55 S 14 G 20 10.00 Partly Cloudy SCT039 89.1 70.5 54% 95 30.18 0.0
13 11:35 SW 12 10.00 Fair CLR 88.9 70 54% 94 30.18 0.0
13 11:15 SW 12 10.00 Fair CLR 88.5 70 54% 94 30.18 0.0
13 10:55 S 14 10.00 Fair CLR 87.6 70.2 56% 93 30.18 0.0
13 10:35 S 15 10.00 Fair CLR 86.9 69.8 57% 92 30.18 0.0
13 10:15 SW 12 10.00 Fair CLR 85.6 70.2 60% 90 30.18 0.0
13 09:55 SW 12 10.00 Fair CLR 84.6 70.5 63% 89 30.18 0.0
13 09:35 SW 10 G 20 10.00 Fair CLR 83.7 70 64% 88 30.18 0.0
13 09:15 SW 12 10.00 Fair CLR 83.1 70 65% 87 30.19 0.0
13 08:55 S 10 10.00 Fair CLR 81.3 71.4 72% 86 30.19 0.0
13 08:35 S 9 10.00 Fair CLR 79.3 72.7 80% 83 30.18 0.0
13 08:15 S 10 10.00 Fair CLR 77.9 73.2 86% 80 30.18 0.0
13 07:55 S 8 10.00 Fair CLR 76.6 73.8 91% 77 30.17 0.0
13 07:35 S 8 10.00 Fair CLR 75.4 73.9 95% 74 30.17 0.0
13 07:15 S 6 10.00 Fair CLR 74.1 73.6 98% 30.16 0.0
13 06:55 S 6 10.00 Fair CLR 73.2 73 78.6 72.7 99% 30.16 0.0
13 06:35 S 6 10.00 Fair CLR 72.7 72.7 100% 30.15 0.0
13 06:15 S 6 10.00 Fair CLR 73 72.9 99% 30.15 0.0
13 05:55 S 7 10.00 Fair CLR 73 72.9 99% 30.14 0.0
13 05:35 S 7 10.00 Fair CLR 73.6 73.2 99% 30.14 0.0
13 05:15 S 6 10.00 Fair CLR 73.6 73.2 99% 30.13 0.0
13 04:55 S 6 10.00 Fair CLR 73.6 73.2 99% 30.13 0.0
13 04:35 S 6 10.00 Fair CLR 73.9 73.2 98% 30.12 0.0
13 04:15 S 6 10.00 Fair CLR 74.5 73 95% 30.12 0.0
13 03:55 S 7 10.00 Fair CLR 75 73.2 94% 73 30.11 0.0
13 03:35 S 6 10.00 Fair CLR 75.4 73.2 93% 74 30.11 0.0
13 03:15 S 9 10.00 Fair CLR 75.6 73.2 92% 75 30.11 0.0
13 02:55 S 8 10.00 Fair CLR 75.7 72.9 91% 75 30.12 0.0
13 02:35 S 9 10.00 Fair CLR 76.1 72.9 90% 76 30.11 0.0
13 02:15 S 9 10.00 Fair CLR 76.6 72.7 88% 78 30.12 0.0
13 01:55 S 8 10.00 Fair CLR 77.2 72.3 85% 79 30.12 0.0
13 01:35 S 8 10.00 Fair CLR 77.7 72 83% 80 30.12 0.0
13 01:15 S 8 10.00 Fair CLR 78.3 71.8 81% 81 30.12 0.0
13 00:55 S 8 10.00 Fair CLR 78.8 71.6 92.8 78.4 79% 82 30.11 0.0
13 00:35 S 9 10.00 Fair CLR 79.2 71.6 78% 82 30.11 0.0
13 00:15 S 9 10.00 Fair CLR 79.7 71.6 76% 83 30.11 0.0
12 23:55 S 9 10.00 Fair CLR 80.2 71.6 75% 84 30.11 0.0
12 23:35 S 9 10.00 Fair CLR 80.6 71.6 74% 85 30.1 0.0
12 23:15 S 8 10.00 Fair CLR 81.1 71.4 72% 85 30.1 0.0
12 22:55 S 8 10.00 Fair CLR 81.3 70.7 70% 85 30.09 0.0
12 22:35 S 8 10.00 Fair CLR 81.9 70 67% 86 30.09 0.0
12 22:15 S 8 10.00 Fair CLR 82.4 69.3 65% 86 30.08 0.0
12 21:55 SE 7 10.00 Fair CLR 83.1 69.3 63% 87 30.07 0.0
12 21:35 SE 6 10.00 Fair CLR 83.3 68.9 62% 87 30.06 0.0
12 21:15 SE 5 10.00 Fair CLR 84.7 68 57% 88 30.06 0.0
12 20:55 SE 6 10.00 Fair CLR 85.5 66.7 54% 88 30.06 0.0
12 20:35 SE 7 10.00 Fair CLR 86.9 66.2 50% 89 30.06 0.0
12 20:15 S 9 10.00 Fair CLR 88.5 65.7 47% 91 30.06 0.0
12 19:55 S 8 10.00 Fair CLR 89.4 65.7 45% 92 30.05 0.0
12 19:35 S 12 10.00 Fair CLR 91 66.7 45% 94 30.05 0.0
12 19:15 SE 10 10.00 Fair CLR 92.1 66.7 43% 95 30.05 0.0
12 18:55 SE 12 10.00 Partly Cloudy SCT060 92.8 66.7 96.6 91.4 42% 96 30.05 0.0
12 18:35 SE 12 10.00 Partly Cloudy SCT060 93.4 66.4 41% 97 30.04 0.0
12 18:15 S 9 10.00 Partly Cloudy SCT070 93.9 66.2 40% 97 30.04 0.0
12 17:55 S 10 10.00 Partly Cloudy SCT070 94.3 64.9 38% 97 30.04 0.0
12 17:35 S 10 10.00 Partly Cloudy SCT070 95.4 65.7 38% 98 30.04 0.0
12 17:15 S 13 G 18 10.00 Partly Cloudy SCT070 95.5 65.1 37% 98 30.04 0.0
12 16:55 SE 12 10.00 Fair CLR 95.7 64.6 36% 98 30.05 0.0
12 16:35 SE 10 G 16 10.00 Fair CLR 95.7 63.7 35% 98 30.05 0.0
12 16:15 S 9 10.00 Fair CLR 95.9 62.4 33% 97 30.05 0.0
12 15:55 SE 8 10.00 Partly Cloudy SCT065 95.4 63.9 35% 97 30.06 0.0
12 15:35 S 13 10.00 Fair CLR 94.6 64.9 38% 97 30.06 0.0
12 15:15 E 5 10.00 Partly Cloudy SCT060 94.6 66.4 40% 98 30.06 0.0
12 14:55 S 12 10.00 Partly Cloudy SCT060 94.6 66.6 40% 98 30.06 0.0
12 14:35 S 12 10.00 Partly Cloudy SCT060 95 67.5 41% 99 30.07 0.0
12 14:15 SE 9 10.00 Partly Cloudy SCT060 94.3 67.6 42% 99 30.07 0.0
12 13:55 S 8 10.00 Partly Cloudy SCT060 93.7 68 43% 98 30.08 0.0
12 13:35 S 6 10.00 Mostly Cloudy BKN060 92.1 67.1 44% 96 30.09 0.0
12 13:15 S 10 10.00 Partly Cloudy SCT060 93 68.2 44% 98 30.1 0.0
12 12:55 S 10 10.00 Partly Cloudy SCT055 92.3 68 93.2 72.5 45% 97 30.1 0.0
12 12:35 SW 7 10.00 Mostly Cloudy BKN049 91.6 69.1 48% 97 30.11 0.0
12 12:20 S 9 10.00 Partly Cloudy SCT047 91.6 68.2 46% 96 30.11 0.0
12 11:55 S 8 10.00 Partly Cloudy SCT047 91 69.1 49% 96 30.11 0.0
12 11:35 S 6 10.00 Fair CLR 89.1 68.9 51% 93 30.11 0.0
12 11:15 S 8 10.00 Fair CLR 90 68.2 49% 94 30.11 0.0
12 10:55 SW 9 10.00 Fair CLR 90 69.6 51% 95 30.11 0.0
12 10:35 SW 10 10.00 Fair CLR 88.9 68.9 52% 93 30.11 0.0
12 10:15 S 8 G 16 10.00 Fair CLR 88.5 69.6 54% 93 30.11 0.0
12 09:55 S 10 G 17 10.00 Fair CLR 86.9 69.6 57% 92 30.11 0.0
12 09:35 SW 8 10.00 Fair CLR 86 69.8 59% 91 30.1 0.0
12 09:15 SW 8 10.00 Fair CLR 84.2 70.2 63% 89 30.1 0.0
12 08:55 S 7 10.00 Fair CLR 82.9 71.2 68% 88 30.1 0.0
12 08:35 SW 3 10.00 Fair CLR 80.6 71.8 75% 85 30.1 0.0
12 08:15 SW 3 10.00 Fair CLR 78.6 72 80% 81 30.09 0.0
12 07:55 S 5 10.00 Fair CLR 76.6 71.6 84% 78 30.09 0.0
12 07:35 S 3 10.00 Fair CLR 75.4 72 89% 75 30.08 0.0
12 07:15 S 5 10.00 Fair CLR 73.4 71.4 94% 30.07 0.0
12 06:55 SE 5 10.00 Fair CLR 72.3 70.5 77.4 72 94% 30.07 0.0
12 06:35 SE 3 10.00 Fair CLR 72.1 70 93% 30.07 0.0
12 06:15 SE 5 10.00 Fair CLR 72.7 70.2 92% 30.06 0.0
12 05:55 SE 5 10.00 Fair CLR 72.5 70 92% 30.05 0.0
12 05:35 S 5 10.00 Fair CLR 72.1 69.8 92% 30.05 0.0
12 05:15 S 3 10.00 Fair CLR 72.5 69.6 91% 30.04 0.0
12 04:55 Calm 10.00 Fair CLR 73.2 69.8 89% 30.04 0.0
12 04:35 S 5 10.00 Fair CLR 73.2 69.8 89% 30.03 0.0
12 04:15 S 7 10.00 Fair CLR 73.4 69.6 88% 30.02 0.0
12 03:55 S 7 10.00 Fair CLR 74.1 69.4 85% 30.02 0.0
12 03:35 S 7 10.00 Fair CLR 74.7 69.1 83% 30.02 0.0
12 03:15 S 8 10.00 Fair CLR 75.7 68.7 79% 77 30.01 0.0
12 02:55 S 8 10.00 Fair CLR 75.2 68.7 80% 76 30.02 0.0
12 02:35 S 7 10.00 Fair CLR 75.2 68.9 81% 76 30.02 0.0
12 02:15 S 7 10.00 Fair CLR 75.6 68.7 79% 76 30.02 0.0
12 01:55 S 7 10.00 Fair CLR 76.8 68.4 75% 78 30.02 0.0
12 01:35 S 7 10.00 Fair CLR 77.2 68.7 75% 79 30.03 0.0
12 01:15 S 6 10.00 Fair CLR 76.1 68.9 78% 77 30.03 0.0
12 00:55 S 6 10.00 Fair CLR 76.5 68.7 92.8 76.3 77% 78 30.03 0.0
12 00:35 S 6 10.00 Fair CLR 77 68.5 75% 79 30.03 0.0
12 00:15 S 6 10.00 Fair CLR 77.5 68.2 73% 79 30.04 0.0
11 23:55 SE 7 10.00 Fair CLR 79.2 67.8 68% 82 30.03 0.0
11 23:35 SE 6 10.00 Fair CLR 79.9 67.5 66% 82 30.03 0.0
11 23:15 SE 6 10.00 Fair CLR 80.6 67.3 64% 83 30.03 0.0
11 22:55 SE 7 10.00 Fair CLR 80.8 67.5 64% 83 30.03 0.0
11 22:40 SE 6 10.00 Fair CLR 81.5 67.5 63% 84 30.03 0.0
11 22:15 SE 7 10.00 Fair CLR 81.9 67.3 61% 84 30.02 0.0
11 21:55 SE 6 10.00 Fair CLR 82.6 67.1 60% 85 30.02 0.0
11 21:35 SE 6 10.00 Fair CLR 83.5 66.7 57% 86 30.02 0.0
11 21:15 SE 6 10.00 Fair CLR 84.4 66.6 55% 87 30.01 0.0
11 20:55 SE 7 10.00 Fair CLR 85.3 66.6 54% 88 30.01 0.0
11 20:35 SE 8 10.00 Fair CLR 86.5 66.7 52% 89 30 0.0
11 20:15 SE 8 10.00 Fair CLR 88 66.7 49% 91 30 0.0
11 19:55 SE 8 10.00 Fair CLR 89.2 66.9 48% 92 29.99 0.0
11 19:35 SE 12 10.00 Fair CLR 90.1 66.9 46% 93 29.99 0.0
11 19:15 SE 10 10.00 Fair CLR 91.9 67.3 44% 96 29.99 0.0
11 18:55 SE 13 10.00 Fair CLR 92.8 67.5 96.8 92.7 43% 97 29.99 0.0
11 18:35 SE 10 10.00 Fair CLR 93.9 67.6 42% 98 29.99 0.0
11 18:15 SE 14 G 17 10.00 Fair CLR 94.8 67.1 40% 99 29.99 0.0
11 17:55 E 9 10.00 Partly Cloudy SCT070 95.2 66.7 39% 99 29.99 0.0
11 17:35 SE 9 10.00 Partly Cloudy SCT070 93.6 64 38% 95 29.99 0.0
11 17:15 SE 10 10.00 Partly Cloudy SCT080 96.1 64 35% 98 29.99 0.0
11 16:55 S 6 10.00 Mostly Cloudy BKN070 95.9 64 35% 98 29.99 0.0
11 16:35 S 6 10.00 Fair CLR 94.5 64.2 37% 96 30 0.0
11 16:15 S 9 10.00 Partly Cloudy SCT070 96.4 64.9 36% 99 30 0.0
11 15:55 E 8 10.00 Partly Cloudy SCT070 95.7 64.8 36% 98 30.01 0.0
11 15:35 SE 3 10.00 Partly Cloudy SCT070 95.4 65.3 37% 98 30.01 0.0
11 15:15 S 9 10.00 Mostly Cloudy BKN070 95.5 65.5 37% 99 30.01 0.0
11 14:55 SW 3 10.00 Fair CLR 95 65.5 38% 98 30.02 0.0
11 14:35 SE 8 10.00 Fair CLR 95.7 64.8 36% 98 30.02 0.0
11 14:15 SW 9 10.00 Fair CLR 94.1 66.4 40% 97 30.03 0.0
11 13:55 SE 5 10.00 Fair CLR 94.3 67.5 42% 98 30.03 0.0
11 13:35 S 7 10.00 Fair CLR 93.7 66.2 40% 97 30.04 0.0
11 13:15 S 6 10.00 Partly Cloudy SCT060 93.4 66.9 42% 97 30.04 0.0
11 12:55 S 9 10.00 Fair CLR 93 67.3 93.7 73.6 43% 97 30.05 0.0
Date Time (cdt) Wind (mph) Vis. (mi.) Weather Sky Cond. Air Dwpt Max. Min. Relative Humidity Wind Chill (°F) Heat Index (°F) altimeter (in) sea level (mb) 1 hr 3 hr 6 hr
6 hour
Temperature (ºF) Pressure Precipitation (in)